TimeCET,TemperatureF,Dew PointF,Humidity,Sea Level PressureIn,VisibilityMPH,Wind Direction,Wind SpeedMPH,Gust SpeedMPH,PrecipitationIn,Events,Conditions,WindDirDegrees,DateUTC
5:50 AM,62.6,53.6,72,29.98,6.2,NE,3.5,-,N/A,,Partly Cloudy,50,2012-11-15 04:50:00
6:50 AM,62.6,53.6,72,29.98,6.2,Variable,2.3,-,N/A,,Scattered Clouds,0,2012-11-15 05:50:00
7:50 AM,64.4,55.4,73,29.98,6.2,Variable,2.3,-,N/A,,Scattered Clouds,0,2012-11-15 06:50:00
8:50 AM,69.8,55.4,60,30.01,6.2,South,5.8,-,N/A,,Scattered Clouds,190,2012-11-15 07:50:00
9:50 AM,69.8,55.4,60,30.01,6.2,SSE,5.8,-,N/A,,Scattered Clouds,160,2012-11-15 08:50:00
10:50 AM,69.8,55.4,60,29.98,6.2,SE,8.1,-,N/A,,Scattered Clouds,140,2012-11-15 09:50:00
11:50 AM,71.6,55.4,57,29.98,6.2,SSE,6.9,-,N/A,,Scattered Clouds,160,2012-11-15 10:50:00
12:50 PM,66.2,59.0,78,29.98,6.2,South,10.4,-,N/A,,Scattered Clouds,180,2012-11-15 11:50:00
1:13 PM,64.4,57.2,77,29.98,4.3,SE,11.5,-,N/A,Rain,Rain,140,2012-11-15 12:13:00
1:50 PM,62.6,55.4,77,29.95,5.0,East,6.9,-,N/A,,Light Drizzle,100,2012-11-15 12:50:00
2:50 PM,64.4,59.0,83,29.95,6.2,NW,5.8,-,N/A,,Scattered Clouds,310,2012-11-15 13:50:00
3:50 PM,62.6,57.2,82,29.95,6.2,Calm,Calm,-,N/A,,Light Drizzle,0,2012-11-15 14:50:00
4:50 PM,62.6,59.0,88,29.95,6.2,ENE,3.5,-,N/A,Thunderstorm,Thunderstorm,70,2012-11-15 15:50:00
5:50 PM,60.8,59.0,94,29.95,6.2,North,3.5,-,N/A,,Light Drizzle,360,2012-11-15 16:50:00
6:50 PM,60.8,59.0,94,29.95,6.2,NNE,3.5,-,N/A,Rain,Light Rain,20,2012-11-15 17:50:00
8:50 PM,60.8,59.0,94,29.95,6.2,NNW,2.3,-,N/A,,Scattered Clouds,340,2012-11-15 19:50:00
9:50 PM,60.8,59.0,94,29.95,6.2,Variable,2.3,-,N/A,Rain,Light Rain,0,2012-11-15 20:50:00
10:03 PM,60.8,59.0,94,29.95,6.2,East,3.5,-,N/A,Rain-Thunderstorm,Light Thunderstorms and Rain,90,2012-11-15 21:03:00
10:50 PM,60.8,59.0,94,29.95,6.2,East,3.5,-,N/A,Rain,Light Rain,100,2012-11-15 21:50:00
11:02 PM,60.8,59.0,94,29.95,6.2,East,4.6,-,N/A,Rain-Thunderstorm,Light Thunderstorms and Rain,80,2012-11-15 22:02:00
11:50 PM,60.8,59.0,94,29.95,6.2,East,3.5,-,N/A,Rain-Thunderstorm,Light Thunderstorms and Rain,80,2012-11-15 22:50:00